This is the latest recevied weather packets stored in our database for station/object VE3GIF. If no packets are shown the sender has not sent any weather packets the latest 1 day(s).
| Time | Temp. | Humidity | Pressure | Rain* | Wind** | Luminosity | Snow |
|---|---|---|---|---|---|---|---|
| 1777979490 | 15.56° C | 76% | 998.8 hPa | 0 mm | 1.34 m/s, 243° | - | - |
| 1777979189 | 15.56° C | 76% | 998.5 hPa | 0 mm | 0.89 m/s, 198° | - | - |
| 1777978889 | 15.56° C | 76% | 998.4 hPa | 0 mm | 0.89 m/s, 254° | - | - |
| 1777978589 | 15.56° C | 76% | 998.5 hPa | 0 mm | 1.79 m/s, 214° | - | - |
| 1777977988 | 15° C | 76% | 998.1 hPa | 0 mm | 1.34 m/s, 196° | - | - |
| 1777977388 | 15° C | 76% | 998.2 hPa | 0 mm | 1.79 m/s, 235° | - | - |
| 1777977087 | 15° C | 75% | 998.2 hPa | 0 mm | 1.34 m/s, 198° | - | - |
| 1777976787 | 15° C | 76% | 998.1 hPa | 0 mm | 0.89 m/s, 193° | - | - |
| 1777976487 | 15° C | 75% | 998 hPa | 0 mm | 1.79 m/s, 200° | - | - |
| 1777976187 | 15° C | 75% | 998.1 hPa | 0 mm | 1.34 m/s, 154° | - | - |
| 1777975886 | 15° C | 75% | 998 hPa | 0 mm | 3.13 m/s, 192° | - | - |
| 1777975586 | 15.56° C | 75% | 997.8 hPa | 0 mm | 1.34 m/s, 148° | - | - |
| 1777975286 | 15.56° C | 75% | 997.8 hPa | 0 mm | 2.24 m/s, 188° | - | - |
| 1777974985 | 15.56° C | 75% | 997.9 hPa | 0 mm | 2.24 m/s, 165° | - | - |
| 1777974685 | 15.56° C | 75% | 997.9 hPa | 0 mm | 1.79 m/s, 180° | - | - |
| 1777974385 | 15.56° C | 75% | 997.9 hPa | 0 mm | 1.34 m/s, 230° | - | - |
| 1777974085 | 15.56° C | 75% | 997.9 hPa | 0 mm | 1.34 m/s, 173° | - | - |
| 1777973784 | 15.56° C | 75% | 997.9 hPa | 0 mm | 3.58 m/s, 199° | - | - |
| 1777973484 | 15.56° C | 74% | 997.9 hPa | 0 mm | 2.68 m/s, 182° | - | - |
| 1777973184 | 15.56° C | 74% | 997.9 hPa | 0 mm | 1.34 m/s, 195° | - | - |
| 1777972883 | 15.56° C | 74% | 997.8 hPa | 0 mm | 1.34 m/s, 204° | - | - |
| 1777972583 | 15.56° C | 74% | 997.7 hPa | 0 mm | 3.58 m/s, 200° | - | - |
| 1777972283 | 15.56° C | 74% | 997.8 hPa | 0 mm | 2.24 m/s, 192° | - | - |
| 1777970481 | 16.11° C | 73% | 997.8 hPa | 0 mm | 1.34 m/s, 184° | - | - |
| 1777970181 | 16.11° C | 73% | 997.8 hPa | 0 mm | 4.02 m/s, 223° | - | - |
* Rain latest hour (hover to see other rain measurements)
** Current wind speed in m/s (hover to see current wind gust speed)